Time,TemperatureF,DewpointF,PressureIn,WindDirection,WindDirectionDegrees,WindSpeedMPH,WindSpeedGustMPH,Humidity,HourlyPrecipIn,Conditions,Clouds,dailyrainin,SoftwareType,DateUTC
2013-05-22 00:01:00,45.0,42.0,-100.00,SSE,160,14.0,19.0,88,-99.99,,,0.00,,2013-05-22 06:01:00,
2013-05-22 00:11:00,44.0,41.0,-100.00,SE,140,12.0,17.0,89,-99.99,,,0.00,,2013-05-22 06:11:00,
2013-05-22 00:21:00,44.0,41.0,-100.00,SE,140,12.0,17.0,89,-99.99,,,0.00,,2013-05-22 06:21:00,
2013-05-22 00:31:00,44.0,41.0,-100.00,SE,140,12.0,17.0,89,-99.99,,,0.00,,2013-05-22 06:31:00,
2013-05-22 00:41:00,44.0,41.0,-100.00,SE,140,12.0,17.0,89,-99.99,,,0.00,,2013-05-22 06:41:00,
2013-05-22 00:52:00,43.0,41.0,-100.00,SE,130,11.0,16.0,91,-99.99,,,0.00,,2013-05-22 06:52:00,
2013-05-22 01:01:00,43.0,41.0,-100.00,SE,130,11.0,16.0,91,-99.99,,,0.00,,2013-05-22 07:01:00,
2013-05-22 01:11:00,42.0,41.0,-100.00,SE,140,10.0,12.0,96,-99.99,,,-99.99,,2013-05-22 07:11:00,
2013-05-22 01:21:00,42.0,41.0,-100.00,SE,140,10.0,12.0,96,-99.99,,,-99.99,,2013-05-22 07:21:00,
2013-05-22 01:31:00,42.0,41.0,-100.00,SE,140,10.0,12.0,96,-99.99,,,-99.99,,2013-05-22 07:31:00,
2013-05-22 01:41:00,42.0,41.0,-100.00,SE,140,10.0,12.0,96,-99.99,,,-99.99,,2013-05-22 07:41:00,
2013-05-22 01:52:00,42.0,41.0,-100.00,SE,135,11.0,14.0,98,-99.99,,,0.00,,2013-05-22 07:52:00,
2013-05-22 02:02:00,42.0,41.0,-100.00,SE,135,11.0,14.0,98,-99.99,,,0.00,,2013-05-22 08:02:00,
2013-05-22 02:11:00,41.0,41.0,-100.00,SE,130,12.0,15.0,99,-99.99,,,0.00,,2013-05-22 08:11:00,
2013-05-22 02:22:00,41.0,41.0,-100.00,SE,130,12.0,15.0,99,-99.99,,,0.00,,2013-05-22 08:22:00,
2013-05-22 02:31:00,41.0,41.0,-100.00,SE,130,12.0,15.0,99,-99.99,,,0.00,,2013-05-22 08:31:00,
2013-05-22 02:41:00,41.0,41.0,-100.00,SE,130,12.0,15.0,99,-99.99,,,0.00,,2013-05-22 08:41:00,
2013-05-22 02:51:00,41.0,40.0,-100.00,SE,130,14.0,16.0,96,-99.99,,,0.00,,2013-05-22 08:51:00,
2013-05-22 03:01:00,41.0,40.0,-100.00,SE,130,14.0,16.0,96,-99.99,,,0.00,,2013-05-22 09:01:00,
2013-05-22 03:11:00,41.0,40.0,-100.00,SE,130,11.0,16.0,96,-99.99,,,0.00,,2013-05-22 09:11:00,
2013-05-22 03:21:00,41.0,40.0,-100.00,SE,130,11.0,16.0,96,-99.99,,,0.00,,2013-05-22 09:21:00,
2013-05-22 03:32:00,41.0,40.0,-100.00,SE,130,11.0,16.0,96,-99.99,,,0.00,,2013-05-22 09:32:00,
2013-05-22 03:42:00,41.0,40.0,-100.00,SE,130,11.0,16.0,96,-99.99,,,0.00,,2013-05-22 09:42:00,
2013-05-22 03:53:00,41.0,40.0,-100.00,SE,130,12.0,14.0,96,-99.99,,,0.00,,2013-05-22 09:53:00,
2013-05-22 04:02:00,41.0,40.0,-100.00,SE,130,12.0,14.0,96,-99.99,,,0.00,,2013-05-22 10:02:00,
2013-05-22 04:12:00,42.0,41.0,-100.00,ESE,120,16.0,19.0,94,-99.99,,,0.00,,2013-05-22 10:12:00,
2013-05-22 04:22:00,42.0,41.0,-100.00,ESE,120,16.0,19.0,94,-99.99,,,0.00,,2013-05-22 10:22:00,
2013-05-22 04:32:00,43.0,40.0,-100.00,SE,125,14.0,19.0,92,-99.99,,,0.00,,2013-05-22 10:32:00,
2013-05-22 04:42:00,43.0,40.0,-100.00,SE,125,14.0,19.0,92,-99.99,,,0.00,,2013-05-22 10:42:00,
2013-05-22 04:52:00,42.0,41.0,-100.00,SE,130,12.0,16.0,94,-99.99,,,0.00,,2013-05-22 10:52:00,
2013-05-22 05:02:00,42.0,41.0,-100.00,SE,130,12.0,16.0,94,-99.99,,,0.00,,2013-05-22 11:02:00,
2013-05-22 05:11:00,43.0,41.0,-100.00,SE,140,12.0,19.0,93,-99.99,,,0.00,,2013-05-22 11:11:00,
2013-05-22 05:21:00,43.0,41.0,-100.00,SE,140,12.0,19.0,93,-99.99,,,0.00,,2013-05-22 11:21:00,
2013-05-22 05:32:00,43.0,41.0,-100.00,SE,140,12.0,19.0,93,-99.99,,,-99.99,,2013-05-22 11:32:00,
2013-05-22 05:41:00,43.0,41.0,-100.00,SE,140,12.0,19.0,93,-99.99,,,-99.99,,2013-05-22 11:41:00,
2013-05-22 05:52:00,42.0,41.0,-100.00,SE,140,14.0,20.0,93,-99.99,,,0.00,,2013-05-22 11:52:00,
2013-05-22 06:02:00,42.0,41.0,-100.00,SE,140,14.0,20.0,93,-99.99,,,0.00,,2013-05-22 12:02:00,
2013-05-22 06:12:00,42.0,41.0,-100.00,SSE,155,14.0,17.0,96,-99.99,,,-99.99,,2013-05-22 12:12:00,
2013-05-22 06:22:00,42.0,41.0,-100.00,SSE,155,14.0,17.0,96,-99.99,,,-99.99,,2013-05-22 12:22:00,
2013-05-22 06:32:00,42.0,41.0,-100.00,SE,145,13.0,19.0,95,-99.99,,,0.00,,2013-05-22 12:32:00,
2013-05-22 06:42:00,42.0,41.0,-100.00,SE,145,13.0,19.0,95,-99.99,,,0.00,,2013-05-22 12:42:00,
2013-05-22 06:52:00,42.0,41.0,-100.00,SE,145,14.0,18.0,95,-99.99,,,0.00,,2013-05-22 12:52:00,
2013-05-22 07:01:00,42.0,41.0,-100.00,SE,145,14.0,18.0,95,-99.99,,,0.00,,2013-05-22 13:01:00,
2013-05-22 07:11:00,42.0,41.0,-100.00,SSE,155,16.0,21.0,93,-99.99,,,0.00,,2013-05-22 13:11:00,
2013-05-22 07:22:00,42.0,41.0,-100.00,SSE,155,16.0,21.0,93,-99.99,,,0.00,,2013-05-22 13:22:00,
2013-05-22 07:31:00,42.0,41.0,-100.00,SSE,155,16.0,21.0,93,-99.99,,,0.00,,2013-05-22 13:31:00,
2013-05-22 07:41:00,42.0,41.0,-100.00,SSE,155,16.0,21.0,93,-99.99,,,0.00,,2013-05-22 13:41:00,
2013-05-22 07:52:00,43.0,41.0,-100.00,SE,130,19.0,24.0,92,-99.99,,,0.00,,2013-05-22 13:52:00,
2013-05-22 08:02:00,43.0,41.0,-100.00,SE,130,19.0,24.0,92,-99.99,,,0.00,,2013-05-22 14:02:00,
2013-05-22 08:11:00,43.0,40.0,-100.00,SE,140,24.0,30.0,90,-99.99,,,0.00,,2013-05-22 14:11:00,
2013-05-22 08:21:00,43.0,40.0,-100.00,SE,140,24.0,30.0,90,-99.99,,,0.00,,2013-05-22 14:21:00,
2013-05-22 08:32:00,43.0,41.0,-100.00,SE,145,22.0,31.0,90,-99.99,,,0.00,,2013-05-22 14:32:00,
2013-05-22 08:41:00,43.0,41.0,-100.00,SE,145,22.0,31.0,90,-99.99,,,0.00,,2013-05-22 14:41:00,
2013-05-22 08:52:00,43.0,41.0,-100.00,SSE,150,24.0,30.0,91,-99.99,,,-99.99,,2013-05-22 14:52:00,
2013-05-22 09:01:00,43.0,41.0,-100.00,SSE,150,24.0,30.0,91,-99.99,,,-99.99,,2013-05-22 15:01:00,
2013-05-22 09:11:00,44.0,41.0,-100.00,SE,145,24.0,31.0,90,-99.99,,,0.00,,2013-05-22 15:11:00,
2013-05-22 09:21:00,44.0,41.0,-100.00,SE,145,24.0,31.0,90,-99.99,,,0.00,,2013-05-22 15:21:00,
2013-05-22 09:32:00,44.0,41.0,-100.00,SSE,150,26.0,34.0,89,-99.99,,,0.00,,2013-05-22 15:32:00,
2013-05-22 09:42:00,44.0,41.0,-100.00,SSE,150,26.0,34.0,89,-99.99,,,0.00,,2013-05-22 15:42:00,
2013-05-22 09:53:00,44.0,41.0,-100.00,SE,145,23.0,30.0,88,-99.99,,,0.00,,2013-05-22 15:53:00,
2013-05-22 10:02:00,44.0,41.0,-100.00,SE,145,23.0,30.0,88,-99.99,,,0.00,,2013-05-22 16:02:00,
2013-05-22 10:12:00,46.0,42.0,-100.00,SE,140,25.0,32.0,84,-99.99,,,0.00,,2013-05-22 16:12:00,
2013-05-22 10:23:00,46.0,42.0,-100.00,SE,140,25.0,32.0,84,-99.99,,,0.00,,2013-05-22 16:23:00,
2013-05-22 10:32:00,46.0,42.0,-100.00,SE,140,24.0,34.0,83,-99.99,,,0.00,,2013-05-22 16:32:00,
2013-05-22 10:42:00,46.0,42.0,-100.00,SE,140,24.0,34.0,83,-99.99,,,0.00,,2013-05-22 16:42:00,
2013-05-22 10:52:00,47.0,41.0,-100.00,SE,145,25.0,31.0,82,-99.99,,,0.00,,2013-05-22 16:52:00,
2013-05-22 11:02:00,47.0,41.0,-100.00,SE,145,25.0,31.0,82,-99.99,,,0.00,,2013-05-22 17:02:00,
2013-05-22 11:11:00,50.0,42.0,-100.00,SE,140,22.0,34.0,75,-99.99,,,0.00,,2013-05-22 17:11:00,
2013-05-22 11:22:00,50.0,42.0,-100.00,SE,140,22.0,34.0,75,-99.99,,,0.00,,2013-05-22 17:22:00,
2013-05-22 11:32:00,51.0,41.0,-100.00,SE,140,24.0,35.0,70,-99.99,,,0.00,,2013-05-22 17:32:00,
2013-05-22 11:42:00,51.0,41.0,-100.00,SE,140,24.0,35.0,70,-99.99,,,0.00,,2013-05-22 17:42:00,
2013-05-22 11:53:00,50.0,41.0,-100.00,SSE,155,26.0,37.0,70,-99.99,,,0.00,,2013-05-22 17:53:00,
2013-05-22 12:02:00,50.0,41.0,-100.00,SSE,155,26.0,37.0,70,-99.99,,,0.00,,2013-05-22 18:02:00,
2013-05-22 12:14:00,53.0,42.0,-100.00,SE,145,25.0,34.0,66,-99.99,,,0.00,,2013-05-22 18:14:00,
2013-05-22 12:22:00,53.0,42.0,-100.00,SE,145,25.0,34.0,66,-99.99,,,0.00,,2013-05-22 18:22:00,
2013-05-22 12:33:00,53.0,41.0,-100.00,SSE,150,24.0,35.0,65,-99.99,,,0.00,,2013-05-22 18:33:00,
2013-05-22 12:42:00,53.0,41.0,-100.00,SSE,150,24.0,35.0,65,-99.99,,,0.00,,2013-05-22 18:42:00,
2013-05-22 12:52:00,54.0,42.0,-100.00,SE,135,26.0,34.0,65,-99.99,,,0.00,,2013-05-22 18:52:00,
2013-05-22 13:02:00,54.0,42.0,-100.00,SE,135,26.0,34.0,65,-99.99,,,0.00,,2013-05-22 19:02:00,
2013-05-22 13:11:00,55.0,42.0,-100.00,SE,130,24.0,34.0,62,-99.99,,,0.00,,2013-05-22 19:11:00,
2013-05-22 13:21:00,55.0,42.0,-100.00,SE,130,24.0,34.0,62,-99.99,,,0.00,,2013-05-22 19:21:00,
2013-05-22 13:32:00,56.0,43.0,-100.00,SE,140,25.0,35.0,61,-99.99,,,0.00,,2013-05-22 19:32:00,
2013-05-22 13:41:00,56.0,43.0,-100.00,SE,140,25.0,35.0,61,-99.99,,,0.00,,2013-05-22 19:41:00,
2013-05-22 13:52:00,56.0,43.0,-100.00,SE,140,30.0,39.0,61,-99.99,,,0.00,,2013-05-22 19:52:00,
2013-05-22 14:01:00,56.0,43.0,-100.00,SE,140,30.0,39.0,61,-99.99,,,0.00,,2013-05-22 20:01:00,
2013-05-22 14:11:00,57.0,44.0,-100.00,SSE,160,28.0,38.0,62,-99.99,,,0.00,,2013-05-22 20:11:00,
2013-05-22 14:21:00,57.0,44.0,-100.00,SSE,160,28.0,38.0,62,-99.99,,,0.00,,2013-05-22 20:21:00,
2013-05-22 14:32:00,57.0,43.0,-100.00,SE,145,26.0,40.0,60,-99.99,,,0.00,,2013-05-22 20:32:00,
2013-05-22 14:41:00,57.0,43.0,-100.00,SE,145,26.0,40.0,60,-99.99,,,0.00,,2013-05-22 20:41:00,
2013-05-22 14:51:00,57.0,43.0,-100.00,SSE,150,31.0,38.0,58,-99.99,,,0.00,,2013-05-22 20:51:00,
2013-05-22 15:01:00,57.0,43.0,-100.00,SSE,150,31.0,38.0,58,-99.99,,,0.00,,2013-05-22 21:01:00,
2013-05-22 15:11:00,59.0,42.0,-100.00,SE,145,27.0,37.0,55,-99.99,,,0.00,,2013-05-22 21:11:00,
2013-05-22 15:21:00,59.0,42.0,-100.00,SE,145,27.0,37.0,55,-99.99,,,0.00,,2013-05-22 21:21:00,
2013-05-22 15:32:00,59.0,44.0,-100.00,SE,145,26.0,40.0,57,-99.99,,,0.00,,2013-05-22 21:32:00,
2013-05-22 15:42:00,59.0,44.0,-100.00,SE,145,26.0,40.0,57,-99.99,,,0.00,,2013-05-22 21:42:00,
2013-05-22 15:52:00,59.0,43.0,-100.00,SE,140,27.0,37.0,54,-99.99,,,0.00,,2013-05-22 21:52:00,
2013-05-22 16:02:00,59.0,43.0,-100.00,SE,140,27.0,37.0,54,-99.99,,,0.00,,2013-05-22 22:02:00,
2013-05-22 16:12:00,59.0,43.0,-100.00,SE,140,27.0,37.0,54,-99.99,,,0.00,,2013-05-22 22:12:00,
2013-05-22 16:42:00,59.0,43.0,-100.00,SE,135,27.0,37.0,55,-99.99,,,0.00,,2013-05-22 22:42:00,
2013-05-22 16:52:00,60.0,46.0,-100.00,SE,145,25.0,37.0,60,-99.99,,,0.00,,2013-05-22 22:52:00,
2013-05-22 17:02:00,60.0,46.0,-100.00,SE,145,25.0,37.0,60,-99.99,,,0.00,,2013-05-22 23:02:00,
2013-05-22 17:12:00,59.0,46.0,-100.00,SE,135,24.0,37.0,62,-99.99,,,0.00,,2013-05-22 23:12:00,
2013-05-22 17:21:00,59.0,46.0,-100.00,SE,135,24.0,37.0,62,-99.99,,,0.00,,2013-05-22 23:21:00,
2013-05-22 17:32:00,58.0,45.0,-100.00,SE,125,26.0,37.0,61,-99.99,,,0.00,,2013-05-22 23:32:00,
2013-05-22 17:42:00,58.0,45.0,-100.00,SE,125,26.0,37.0,61,-99.99,,,0.00,,2013-05-22 23:42:00,
2013-05-22 17:52:00,58.0,46.0,-100.00,SE,130,26.0,34.0,64,-99.99,,,0.00,,2013-05-22 23:52:00,
2013-05-22 18:01:00,58.0,46.0,-100.00,SE,130,26.0,34.0,64,-99.99,,,0.00,,2013-05-23 00:01:00,
2013-05-22 18:11:00,56.0,45.0,-100.00,ESE,115,29.0,35.0,67,-99.99,,,0.00,,2013-05-23 00:11:00,
2013-05-22 18:22:00,56.0,45.0,-100.00,ESE,115,29.0,35.0,67,-99.99,,,0.00,,2013-05-23 00:22:00,
2013-05-22 18:31:00,56.0,45.0,-100.00,ESE,120,24.0,39.0,67,-99.99,,,0.00,,2013-05-23 00:31:00,
2013-05-22 18:41:00,56.0,45.0,-100.00,ESE,120,24.0,39.0,67,-99.99,,,0.00,,2013-05-23 00:41:00,
2013-05-22 18:51:00,55.0,45.0,-100.00,ESE,120,29.0,35.0,68,-99.99,,,0.00,,2013-05-23 00:51:00,
2013-05-22 19:01:00,55.0,45.0,-100.00,ESE,120,29.0,35.0,68,-99.99,,,0.00,,2013-05-23 01:01:00,
2013-05-22 19:11:00,54.0,44.0,-100.00,ESE,115,29.0,37.0,69,-99.99,,,0.00,,2013-05-23 01:11:00,
2013-05-22 19:21:00,54.0,44.0,-100.00,ESE,115,29.0,37.0,69,-99.99,,,0.00,,2013-05-23 01:21:00,
2013-05-22 19:32:00,53.0,44.0,-100.00,ESE,115,21.0,32.0,72,-99.99,,,0.00,,2013-05-23 01:32:00,
2013-05-22 19:42:00,53.0,44.0,-100.00,ESE,115,21.0,32.0,72,-99.99,,,0.00,,2013-05-23 01:42:00,
2013-05-22 19:52:00,52.0,44.0,-100.00,ESE,115,27.0,35.0,74,-99.99,,,0.00,,2013-05-23 01:52:00,
2013-05-22 20:01:00,52.0,44.0,-100.00,ESE,115,27.0,35.0,74,-99.99,,,0.00,,2013-05-23 02:01:00,
2013-05-22 20:11:00,51.0,44.0,-100.00,SE,145,22.0,32.0,76,-99.99,,,0.00,,2013-05-23 02:11:00,
2013-05-22 20:21:00,51.0,44.0,-100.00,SE,145,22.0,32.0,76,-99.99,,,0.00,,2013-05-23 02:21:00,
2013-05-22 20:31:00,51.0,44.0,-100.00,SE,135,26.0,32.0,76,-99.99,,,0.00,,2013-05-23 02:31:00,
2013-05-22 20:42:00,51.0,44.0,-100.00,SE,135,26.0,32.0,76,-99.99,,,0.00,,2013-05-23 02:42:00,
2013-05-22 20:51:00,51.0,44.0,-100.00,SE,135,26.0,32.0,76,-99.99,,,0.00,,2013-05-23 02:51:00,
2013-05-22 21:01:00,50.0,44.0,-100.00,SE,135,21.0,34.0,77,-99.99,,,0.00,,2013-05-23 03:01:00,
2013-05-22 21:11:00,50.0,43.0,-100.00,SE,135,23.0,31.0,76,-99.99,,,0.00,,2013-05-23 03:11:00,
2013-05-22 21:21:00,50.0,43.0,-100.00,SE,135,23.0,31.0,76,-99.99,,,0.00,,2013-05-23 03:21:00,
2013-05-22 21:33:00,50.0,43.0,-100.00,SE,140,22.0,29.0,75,-99.99,,,0.00,,2013-05-23 03:33:00,
2013-05-22 21:43:00,50.0,43.0,-100.00,SE,140,22.0,29.0,75,-99.99,,,0.00,,2013-05-23 03:43:00,
2013-05-22 21:53:00,50.0,43.0,-100.00,SE,145,19.0,30.0,76,-99.99,,,0.00,,2013-05-23 03:53:00,
2013-05-22 22:02:00,50.0,43.0,-100.00,SE,145,19.0,30.0,76,-99.99,,,0.00,,2013-05-23 04:02:00,
2013-05-22 22:12:00,50.0,43.0,-100.00,SSE,150,22.0,29.0,75,-99.99,,,0.00,,2013-05-23 04:12:00,
2013-05-22 22:22:00,50.0,43.0,-100.00,SSE,150,22.0,29.0,75,-99.99,,,0.00,,2013-05-23 04:22:00,
2013-05-22 22:33:00,50.0,43.0,-100.00,SSE,150,22.0,29.0,75,-99.99,,,0.00,,2013-05-23 04:33:00,
2013-05-22 22:42:00,50.0,43.0,-100.00,SSE,150,22.0,29.0,75,-99.99,,,0.00,,2013-05-23 04:42:00,
2013-05-22 22:52:00,50.0,43.0,-100.00,SSE,160,23.0,28.0,77,-99.99,,,0.00,,2013-05-23 04:52:00,
2013-05-22 23:02:00,50.0,43.0,-100.00,SSE,160,23.0,28.0,77,-99.99,,,0.00,,2013-05-23 05:02:00,
2013-05-22 23:11:00,50.0,43.0,-100.00,SE,140,26.0,32.0,76,-99.99,,,0.00,,2013-05-23 05:11:00,
2013-05-22 23:22:00,50.0,43.0,-100.00,SE,140,26.0,32.0,76,-99.99,,,0.00,,2013-05-23 05:22:00,
2013-05-22 23:32:00,50.0,43.0,-100.00,SE,145,26.0,35.0,77,-99.99,,,0.00,,2013-05-23 05:32:00,
2013-05-22 23:42:00,50.0,43.0,-100.00,SE,145,26.0,35.0,77,-99.99,,,0.00,,2013-05-23 05:42:00,
2013-05-22 23:52:00,50.0,43.0,-100.00,SE,145,28.0,38.0,77,-99.99,,,0.00,,2013-05-23 05:52:00,